TIME,DELAY(SENSOR),PRES,OXYGEN,RAWTEMP,T(OPTODE),TCPHASE,FLUOR,BETA(BETA700),BETA(BETA412),BETA(BETA440),CDOM,C(CSC),ED(ED412.40),ED(ED444.00),ED(ED489.70),ED(ED554.30),LU(LU411.80),LU(LU443.40),LU(LU489.60),LU(LU554.10),COMP,TILTX,TILTY,CHECK
1378354098,5810,884.2299804687500000,46.4560089111328100,661.3104858398438000,4.5848178863525390,54.0599784851074200,52,100,86,80,78,15307,2147753234,2147426194,2148013238,2147872036,2147638528,2147060141,2148262253,2147199890,1166,4,13,786
1378357694,5811,968.0499877929688000,49.6643600463867200,670.5087890625000000,4.2813892364501950,53.7196998596191400,52,101,86,78,78,15310,2147756361,2147426971,2148012681,2147874422,2147641270,2147058532,2148262208,2147199040,370,4,13,55401
1378361294,5807,983.8400268554688000,49.9094009399414060,671.9772949218750000,4.2328591346740720,53.7083396911621100,52,97,87,78,79,15303,2147753801,2147425664,2148013833,2147875273,2147640201,2147055808,2148261952,2147198272,3464,4,13,20448
1378364894,5813,986.5599975585938000,50.3662300109863300,673.4348144531250000,4.1846661567687990,53.6607894897460940,52,97,83,78,79,15303,2147758272,2147424512,2148016530,2147870765,2147642779,2147051309,2148264905,2147200036,67,4,13,44528
1378368494,5807,995.2299804687500000,50.5191497802734400,673.4976806640625000,4.1825871467590330,53.6443595886230500,52,98,85,79,78,15247,2147757997,2147426432,2148014793,2147873572,2147640246,2147052379,2148263597,2147195264,3372,4,13,49192
1378372094,5807,989.1400146484375000,50.3301391601562500,673.5930786132812000,4.1794300079345700,53.6726799011230500,52,99,84,78,79,15250,2147756781,2147424384,2148012160,2147871131,2147643437,2147054710,2148262116,2147198180,3576,4,13,59537
1378375694,5809,993.7199707031250000,50.3490791320800800,674.0302734375000000,4.1649680137634280,53.6721992492675800,53,97,88,79,79,15241,2147758637,2147423542,2148013851,2147873298,2147640758,2147055341,2148265764,2147201060,3337,4,13,27373
1378379294,5808,995.3400268554688000,50.2405700683593750,673.8536987304688000,4.1708111763000490,53.6862487792968750,52,97,82,77,79,15249,2147756032,2147422784,2148014756,2147873901,2147640640,2147057142,2148262912,2147202102,559,4,13,8465
1378382894,5807,995.6099853515625000,50.4795799255371100,674.7993774414062000,4.1395258903503420,53.6679611206054700,52,97,85,79,78,15246,2147756452,2147422912,2148012132,2147871104,2147639972,2147060251,2148261394,2147200475,3472,4,13,55783
1378386494,5808,996.2800292968750000,50.4657897949218750,674.5156860351562000,4.1489090919494630,53.6649208068847660,53,100,84,78,79,15248,2147757220,2147421238,2148014198,2147870061,2147640612,2147053357,2148262939,2147202203,262,4,13,41961
1378390094,5809,997.9699707031250000,50.2505302429199200,675.3488159179688000,4.1213459968566895,53.7036209106445300,52,97,86,80,79,15249,2147756324,2147423899,2148013476,2147874313,2147640612,2147051565,2148263853,2147199067,3563,4,13,2943
1378393694,5806,997.2999877929688000,50.4427604675293000,674.7078857421875000,4.1425509452819820,53.6699409484863300,52,98,86,79,79,15251,2147756544,2147425334,2148011227,2147876598,2147641042,2147055195,2148263433,2147197760,472,4,13,5732
1378397294,5811,1000.0599975585938000,50.4267387390136700,674.6860961914062000,4.1432738304138180,53.6707191467285160,52,104,85,76,79,15249,2147757211,2147419181,2148015122,2147875008,2147641536,2147052717,2148263972,2147198875,370,4,13,63224
1378400894,5811,998.0999755859375000,50.3200912475585940,674.5654296875000000,4.1472640037536620,53.6857795715332000,53,101,87,78,79,15237,2147758217,2147421787,2148015067,2147872173,2147639104,2147050240,2148265234,2147202157,326,4,13,38979
1378404494,5805,1003.5499877929688000,49.8523788452148440,674.6113281250000000,4.1457500457763670,53.7451705932617200,52,97,85,80,79,15237,2147757366,2147425746,2148011931,2147871104,2147640722,2147051620,2148263058,2147200137,3574,4,13,63855
1378408094,5811,1007.0700073242188000,49.7820091247558600,673.6453857421875000,4.1777019500732420,53.7453117370605500,52,98,88,76,78,15235,2147759094,2147426715,2148013787,2147871945,2147640457,2147057947,2148261110,2147199716,3372,4,13,58910
1378411694,5808,999.4699707031250000,49.3506889343261700,673.7000122070312000,4.1758961677551270,53.8027000427246100,53,98,87,79,80,15230,2147755108,2147422171,2148011483,2147876214,2147642669,2147053010,2148261174,2147199085,278,4,13,28345
1378415294,5810,1000.7000122070312000,49.2234611511230500,674.0181884765625000,4.1653671264648440,53.8302192687988300,53,96,88,80,78,15236,2147755657,2147427995,2148012662,2147873417,2147641865,2147051721,2148264987,2147199789,3594,4,13,30762
1378418894,5808,993.9099731445312000,49.9804496765136700,674.9168701171875000,4.1356348991394040,53.7333717346191400,51,106,84,79,80,15231,2147755620,2147424402,2148016274,2147871552,2147641883,2147051017,2148261787,2147199670,252,4,13,3005
1378422494,5808,997.1500244140625000,49.8420906066894500,675.2813720703125000,4.1235752105712890,53.7608909606933600,52,98,84,78,79,15236,2147759195,2147424658,2148014317,2147875721,2147640118,2147058084,2148264246,2147198637,155,4,13,53804
1378426094,5809,996.3599853515625000,49.4940986633300800,675.7418823242188000,4.1083340644836430,53.8103904724121100,52,112,83,79,79,15236,2147754669,2147423140,2148014628,2147870765,2147641225,2147057883,2148265380,2147199707,3477,4,13,12061
1378429694,5810,1001.4600219726562000,49.6813507080078100,675.3145141601562000,4.1224799156188965,53.7836799621582000,53,192,87,78,80,15232,2147756827,2147420790,2148015186,2147872932,2147638710,2147052873,2148264713,2147200356,3475,3,13,24755
1378433294,5808,989.9699707031250000,50.0326309204101560,675.9763183593750000,4.1005759239196780,53.7393188476562500,52,99,86,78,80,15235,2147757549,2147424960,2148012736,2147874267,2147643236,2147054025,2148263122,2147196772,3186,4,13,46713
1378436894,5808,996.1699829101562000,50.6759605407714840,677.2883911132812000,4.0571331977844240,53.6666793823242200,52,97,83,78,79,15230,2147759744,2147424374,2148011227,2147873526,2147641545,2147056813,2148266505,2147201380,3590,4,13,62621
1378440494,5807,1002.2600097656250000,50.9889984130859400,676.5869750976562000,4.0803570747375490,53.6159782409668000,53,97,87,77,79,15228,2147760091,2147425124,2148013696,2147877531,2147640832,2147051483,2148265764,2147196681,155,4,13,62006
1378444094,5808,1002.4000244140625000,49.9558792114257800,675.3931274414062000,4.1198768615722660,53.7416000366210940,52,96,85,78,80,15226,2147758354,2147423945,2148012114,2147873627,2147642733,2147050313,2148263058,2147195977,116,4,13,926
1378447694,5808,1010.2000122070312000,49.9412498474121100,674.3928833007812000,4.1529731750488280,53.7355804443359400,52,97,83,79,78,15226,2147755885,2147426176,2148011108,2147872466,2147641792,2147053558,2148263478,2147201042,3415,4,13,29500
1378451294,5807,1011.6900024414062000,49.3051300048828100,673.4489135742188000,4.1841979026794430,53.8077888488769500,52,98,86,77,78,15224,2147753910,2147429796,2148014400,2147874331,2147640877,2147059218,2148264155,2147202358,3288,4,13,27432
1378454894,5805,1005.6900024414062000,49.1594696044921900,674.2791137695312000,4.1567378044128420,53.8407096862793000,52,98,86,78,79,15225,2147756964,2147427574,2148010468,2147869028,2147643346,2147048841,2148264356,2147195200,3330,4,13,33356
1378458494,5808,1007.8099975585938000,49.2951812744140600,674.1671142578125000,4.1604437828063965,53.8168601989746100,52,98,86,79,80,15227,2147753078,2147423853,2148010733,2147873152,2147639405,2147049517,2148266194,2147198966,3178,4,13,8466
1378462094,5807,1004.4199829101562000,49.5943908691406250,675.2265014648438000,4.1253910064697270,53.7935600280761700,52,109,87,78,78,15226,2147754203,2147426331,2148012443,2147871588,2147642249,2147053586,2148264978,2147198171,3445,4,13,48178
1378465694,5810,1006.9299926757812000,49.4364204406738300,674.1348266601562000,4.1615138053894040,53.8018989562988300,52,98,84,78,80,15224,2147755748,2147423826,2148011565,2147872923,2147638930,2147044690,2148263506,2147197275,3455,4,13,61108
1378469294,5805,999.4799804687500000,49.3235092163085940,674.0048217773438000,4.1658120155334470,53.8104896545410160,52,100,85,79,80,15224,2147755446,2147424676,2148011684,2147873243,2147640429,2147053312,2148263661,2147197403,1116,4,13,12500
1378472894,5812,1001.0700073242188000,49.7314491271972660,675.7050170898438000,4.1095561981201170,53.7765388488769500,52,99,86,78,80,15222,2147752886,2147425216,2148011474,2147869540,2147640484,2147047460,2148260818,2147197238,3523,4,13,56225
1378476494,5812,1002.2100219726562000,50.1960296630859400,676.3353271484375000,4.0886921882629395,53.7235412597656250,52,98,87,78,79,15220,2147755291,2147425270,2148011748,2147870765,2147641417,2147052315,2148261293,2147193161,366,4,13,61729
1378480094,5808,997.9099731445312000,49.9915084838867200,676.7102050781250000,4.0762767791748050,53.7585105895996100,51,98,87,78,79,15220,2147751826,2147424036,2148010230,2147872457,2147644004,2147056512,2148260699,2147200265,3137,3,13,50792
1378483694,5808,999.0599975585938000,50.2731285095214840,676.7379150390625000,4.0753631591796875,53.7139091491699200,52,97,86,79,78,15222,2147755200,2147422811,2148013833,2147874020,2147638674,2147051904,2148265462,2147197458,3449,4,13,31636
1378487294,5804,1005.7700195312500000,50.2484397888183600,675.9367065429688000,4.1018848419189450,53.7082214355468750,53,98,82,79,78,15223,2147756434,2147423122,2148013952,2147873737,2147640548,2147052333,2148265901,2147200585,3331,4,13,4951
1378490894,5807,1006.2299804687500000,50.0185394287109400,674.5933227539062000,4.1463451385498050,53.7249794006347660,52,98,83,78,80,15220,2147757120,2147422409,2148011611,2147876032,2147641984,2147053888,2148262701,2147201938,3409,4,13,19271
1378494494,5808,1013.3300170898438000,49.8527908325195300,674.7208251953125000,4.1421241760253910,53.7521400451660160,52,97,81,78,79,15222,2147756086,2147425600,2148011785,2147874203,2147640018,2147047963,2148258605,2147198793,3578,3,13,2556
1378497356,5808,1010.2199707031250000,49.4206008911132800,674.0855712890625000,4.1631407737731930,53.8004913330078100,52,98,85,79,78,15309,2147758125,2147423753,2148014473,2147874139,2147642916,2147054436,2148266093,2147197449,3040,4,13,23610
